Location: *
(51.0333°S, 178.4667°E)
Time: 12:53:36
(UTC+00:00)

STARLINK-59 - Pass Details

Date: 15 November 2019
Orbit: 529 x 530 km, 53.0° (Epoch: 10 December)

Event Time Altitude Azimuth Distance (km) Brightness Sun altitude
Rises 09:10:01 0° 269° (W) 2,683 7.7 -12.1°
Reaches altitude 10° 09:12:15 10° 266° (W) 1,795 6.9 -12.3°
Maximum altitude 09:16:19 65° 183° (S) 594 4.0 -12.7°
Drops below altitude 10° 09:20:23 10° 100° (E) 1,798 6.0 -13.1°
Enters shadow 09:22:06 - 97° (E) 2,481 6.7 -13.3°
